Voltar ao catálogo

CZ-6A DEB

AtivoSSO
NORAD 54926·DEBRIS·🇨🇳 China

Lançado Nov 11, 2022 de Taiyuan Satellite Launch Center

Loading…

Próximas Passagens (próximas 24 horas)

TLE

AtualizadoSource: Space-Track

Época: Sep 14, 2026, 09:10 UTC

1 54926U 22151RP  26257.38228638  .00000488  00000-0  30397-3 0  9994
2 54926  98.8518 245.2959 0063970 100.8930 259.9446 14.08398489196581

Acompanhe CZ-6A DEB em tempo real com AllMySat

Download on the App Store